Location: ??????
(38.5153°N, 23.0340°E)
Time: 14:14:46
(UTC+00:00)

Cosmos 1553 Rocket - Pass Details

Date: 13 December 2025
Orbit: 942 x 1006 km, 82.9° (Epoch: 17 January)

Event Time Altitude Azimuth Distance (km) Brightness Sun altitude
Rises 17:04:19 0° 192° (SSW) 3,612 7.3 -22.1°
Reaches altitude 10° 17:06:48 10° 194° (SSW) 2,678 6.6 -22.6°
Maximum altitude 17:12:54 70° 278° (W) 1,028 4.2 -23.8°
Drops below altitude 10° 17:19:10 10° 2° (N) 2,739 6.2 -25.0°
Sets 17:21:44 0° 5° (N) 3,700 6.9 -25.5°
